Location: Cottonwood Meadow
(37.8946°N, 119.7874°W)
Time: 05:23:52
(UTC+00:00)

Daily predictions for brighter satellites

Satellite Brightness Start Highest point End
(mag) Time Altitude Azimuth Time Altitude Azimuth Time Altitude Azimuth
ADEOS Rocket 2.9 02:52:26 10° SSE 02:58:03 82° WSW 03:03:33 10° NNW
CZ-4B R/B 4.3 02:58:42 10° S 03:03:34 53° W 03:08:20 10° NNW
Cosmos 1825 3.1 03:01:19 10° NNE 03:04:13 25° ENE 03:07:05 10° SE
SPOT 1/Viking Rocket 4.1 03:00:15 10° SE 03:05:06 41° ENE 03:09:58 10° N
NOSS 2-2 (C) 3.1 03:01:39 10° SW 03:05:10 72° WNW 03:08:18 10° NNE
Cosmos 2263 4.4 03:00:34 10° S 03:05:55 46° ESE 03:11:16 10° NE
H-2A ROCKET BODY 4.0 03:01:35 10° WSW 03:06:10 35° S 03:21:29 10° ESE
Cosmos 1674 Rocket 3.5 03:02:52 10° N 03:07:19 75° E 03:11:45 10° SSE
CZ-4B R/B 3.7 03:06:29 10° SE 03:11:47 43° ENE 03:17:04 10° N
Hubble Space Telescope 2.4 03:10:51 10° SW 03:13:45 19° S 03:16:31 11° SE
Cosmos 2341 Rocket 4.3 03:08:42 10° N 03:14:47 49° E 03:20:46 10° SSE
Cosmos 2082 Rocket 3.9 03:14:43 10° NW 03:19:49 34° WSW 03:24:53 10° SSW
Resurs 1-3 3.5 03:15:51 10° SSE 03:20:11 76° ENE 03:24:32 10° N
Milstar 3 4.5 03:13:42 10° SW 03:22:05 40° SSE 03:36:54 10° E
USA 234 3.4 03:15:43 10° ESE 03:22:09 62° NE 03:28:35 10° NW
NOSS 3-1 (C) 3.3 03:19:39 10° S 03:24:00 40° ESE 03:28:57 10° NE
IKONOS-2 4.4 03:20:41 10° NNE 03:24:55 83° ESE 03:29:06 10° S
Cosmos 1025 Rocket 3.4 03:23:45 10° N 03:27:57 45° E 03:32:07 10° SSE
Okean O Rocket 2.3 03:26:49 13° SE 03:30:18 35° ENE 03:34:16 10° N
Cosmos 2366 rocket 4.2 03:27:57 10° N 03:34:11 56° E 03:40:24 10° SSE
Resurs 01 Rocket 2.0 03:32:29 13° SE 03:36:04 42° ENE 03:40:15 10° N
Cosmos 1346 Rocket 2.6 03:32:46 10° S 03:36:36 81° E 03:40:25 10° N
CARTOSAT-1 4.1 03:35:11 16° SE 03:38:09 38° ENE 03:42:07 10° N
SJ-6B 3.3 03:34:32 10° S 03:38:24 61° W 03:42:20 10° NNW
Cosmos 1975 Rocket 3.8 03:36:24 10° NNE 03:40:18 32° ENE 03:42:18 21° ESE
Cosmos 2218 Rocket 4.1 03:35:18 10° N 03:41:39 62° E 03:47:54 10° SSE
Cosmos 1328 3.6 03:39:49 10° N 03:43:35 69° E 03:46:51 13° SSE
ATLAS 3B R/B 3.2 03:39:00 10° S 03:45:13 38° ESE 03:51:51 10° NE
Cosmos 1302 Rocket 4.2 03:41:32 10° SSW 03:46:47 76° WNW 03:52:03 10° NNE
OAO 3 Rocket 3.3 03:43:33 10° W 03:48:22 63° S 03:51:06 25° ESE
Cosmos 1821 Rocket 4.4 03:43:57 10° N 03:49:43 39° ENE 03:53:13 21° SE
Centaur D-1AR AC-36 4.4 03:46:02 10° S 03:49:48 18° SE 03:50:48 18° SE
USA 281 3.5 03:46:26 19° SE 03:51:01 49° ENE 03:57:17 10° NNW
Cosmos 1892 3.3 03:47:42 10° NNW 03:51:11 51° W 03:54:37 10° S
USA 186 1.7 03:49:12 15° S 03:51:37 76° W 03:54:40 10° NNW
Cosmos 1959 Rocket 4.4 03:45:33 10° N 03:51:39 70° E 03:57:48 10° SSE
Cosmos 1782 Rocket 3.5 03:47:54 10° S 03:52:15 87° W 03:56:39 10° N
Meteor 1-21 Rocket 4.3 03:50:50 10° N 03:56:48 83° E 04:02:40 10° S
DELTA 2 R/B (1) 4.0 03:52:40 10° W 03:58:07 54° SSW 04:01:06 26° SE
CZ-4 R/B 2.8 03:55:30 10° SSW 03:59:12 37° W 04:02:52 10° NNW
Cosmos 1455 3.2 03:58:14 10° SSW 04:01:39 44° W 04:05:06 10° N
ATLAS 5 CENTAUR R/B 0.7 04:01:26 10° SSW 04:04:42 67° ESE 04:08:09 10° NE
SPOT 5 4.0 04:03:53 26° E 04:05:09 29° ENE 04:09:41 10° N
Cosmos 968 Rocket 4.1 04:02:32 10° NNW 04:07:29 52° WSW 04:12:19 11° S
ERS-1 Rocket 4.3 04:16:12 23° ENE 04:16:14 23° ENE 04:20:06 10° NNE
Meteor 1-11 4.2 04:10:48 10° N 04:16:26 62° E 04:18:52 34° SSE
Cosmos 1300 Rocket 4.2 04:14:21 10° SSW 04:18:35 54° W 04:22:54 10° N
Okean 2 Rocket 4.0 04:29:19 33° NE 04:29:19 33° NE 04:32:21 10° NNE
SJ 16-02 1.9 04:25:01 10° NNW 04:29:13 52° WSW 04:30:56 31° SSW
MOS 1 4.2 04:28:08 42° SE 04:30:03 68° ENE 04:35:43 10° N
CZ-4C R/B 3.3 04:27:43 10° N 04:31:06 61° WNW 04:31:37 52° WSW
CSL-04 Rocket 4.4 04:26:37 14° S 04:31:17 52° W 04:36:40 10° NNW
In-Cosmos 22 Rocket 4.2 04:28:30 10° NNW 04:33:55 77° W 04:36:36 31° S
OAO 1 Rocket 4.4 04:29:05 10° WSW 04:34:20 63° S 04:34:58 58° SE
Cosmos 1934 Rocket 4.5 04:29:56 10° N 04:35:39 39° ENE 04:35:59 38° E
IRS-1C Rocket 4.1 04:37:49 56° ESE 04:38:28 60° ENE 04:43:40 10° N
Cosmos 2297 Rocket 4.1 04:38:02 10° NNE 04:41:17 15° NE 04:41:24 15° NE
Cosmos 2098 Rocket 4.4 04:37:47 10° SSW 04:43:09 46° W 04:47:36 10° N
Sich 1 Rocket 4.2 04:45:04 43° NE 04:45:04 43° NE 04:48:11 10° NNE
Okean-O 2.8 04:43:30 58° SSW 04:44:09 68° WSW 04:48:33 10° NNW
Spot 2 Rocket 4.5 04:47:38 32° NE 04:47:38 32° NE 04:51:22 10° N
MetOp-B 4.0 04:46:23 66° SE 04:47:01 75° ENE 04:52:23 10° N
Terra 2.9 04:48:09 32° NE 04:48:09 32° NE 04:51:23 10° N
NOSS 3-1 (A) 2.9 04:46:08 10° SW 04:50:55 82° WNW 04:56:29 10° NNE
Hubble Space Telescope 3.3 04:50:57 10° SW 04:51:24 12° SW 04:51:24 12° SW
USA 245 4.2 04:59:47 65° ENE 04:59:47 65° ENE 05:04:42 10° N
IRS-1A Rocket 4.2 05:03:42 73° SSE 05:04:20 90° E 05:10:16 10° NNW
USA 234 4.3 05:03:04 27° SSW 05:05:19 34° SW 05:11:10 10° WNW
Ariane Rocket 3.7 05:07:21 44° NNE 05:07:21 44° NNE 05:11:07 10° N
Okean O Rocket 4.0 05:04:10 12° SW 05:06:40 18° W 05:09:38 10° NW
Resurs 01 Rocket 4.3 05:10:05 10° SW 05:12:41 15° W 05:15:18 10° NW
SPOT 3 Rocket 4.3 05:15:07 44° NNE 05:15:07 44° NNE 05:18:56 10° N
Cosmos 1241 Rocket 4.5 05:12:54 10° NNW 05:18:58 68° NE 05:18:58 68° NE
Cosmos 1486 Rocket 4.3 05:15:40 10° NNW 05:20:11 62° WNW 05:20:11 62° WNW
Iridium 4 Rocket 4.0 05:29:08 61° NW 05:29:08 61° NW 05:33:59 10° N
ATLAS 3B R/B 3.8 05:29:08 10° WSW 05:35:48 45° NW 05:42:57 10° NNE
Cosmos 1605 Rocket 4.3 05:34:55 10° N 05:40:11 61° NNE 05:40:11 61° NNE
SPOT 5 4.4 05:43:02 33° W 05:43:02 33° W 05:47:46 10° NNW
Cosmos 2227 Rocket 3.9 05:51:49 10° N 05:54:46 25° NNE 05:54:46 25° NNE
CZ-4C R/B 3.8 06:15:10 10° NNW 06:21:29 42° NE 06:21:29 42° NE
Terra 4.4 06:26:51 16° WNW 06:26:51 16° WNW 06:28:17 10° NW
Cosmos 2297 Rocket 3.8 06:20:19 10° NNW 06:23:12 31° NNW 06:23:12 31° NNW
COSMOS 2455 4.2 06:23:50 10° NNW 06:27:12 34° NNW 06:27:12 34° NNW
Cosmos 2263 Rocket 4.4 06:55:27 10° N 06:57:20 20° N 06:57:20 20° N
CENTAUR R/B 3.9 06:55:04 10° NNW 07:02:34 46° NE 07:02:34 46° NE
CZ-4C R/B 4.5 08:03:25 10° NW 08:06:34 27° NW 08:06:34 27° NW
Cosmos 2322 Rocket 4.4 08:48:27 21° NNE 08:48:27 21° NNE 08:50:13 10° NNE
Cosmos 2219 Rocket 4.5 08:55:50 19° NE 08:55:50 19° NE 08:57:27 10° NE
SL-16 R/B 4.3 09:04:26 21° N 09:04:26 21° N 09:06:30 10° N
USA 215 4.3 08:58:00 10° NE 09:02:42 38° N 09:02:42 38° N
ADEOS II 4.4 09:15:42 10° NE 09:17:38 18° ENE 09:17:38 18° ENE
CZ-2D R/B 3.9 09:28:09 10° NNE 09:30:50 28° NE 09:30:50 28° NE
SL-16 R/B 4.2 09:36:56 23° E 09:39:00 27° ENE 09:44:05 10° N
COSMOS 2428 3.9 09:52:37 39° NE 09:52:37 39° NE 09:56:15 10° NNE
CZ-2C R/B 3.8 09:58:45 40° NNE 09:58:45 40° NNE 10:02:28 10° N
Cosmos 2237 Rocket 3.9 09:58:31 25° E 09:58:31 25° E 10:02:35 10° NE
Lacrosse 5 3.9 10:00:41 23° N 10:00:41 23° N 10:03:23 10° NNE
ALOS 4.3 09:59:41 10° NE 10:02:16 23° ENE 10:02:16 23° ENE
CZ-2C R/B 4.2 10:01:02 10° NNE 10:04:33 40° NE 10:04:33 40° NE
Resurs 1-4 Rocket 3.3 10:08:04 10° N 10:11:14 37° N 10:11:14 37° N
Cosmos 2333 Rocket 4.0 10:16:50 21° NNW 10:16:50 21° NNW 10:19:42 10° N
Cosmos 2360 Rocket 4.2 10:20:20 18° NW 10:20:20 18° NW 10:22:52 10° N
Nadezhda 4 Rocket 4.0 10:28:34 77° NNE 10:28:34 77° NNE 10:34:14 10° N
NOSS 0 Rocket 3.9 10:32:14 76° E 10:32:14 76° E 10:38:10 10° NNE
IDEFIX/ARIANE 42P 4.1 10:27:35 10° N 10:30:18 27° NNW 10:30:18 27° NNW
Cosmos 2278 Rocket 3.5 10:28:30 10° N 10:33:46 38° ENE 10:38:59 10° SE
Cosmos 2219 Rocket 3.7 10:37:32 24° NW 10:37:32 24° NW 10:40:57 10° N
RESURS DK-1 4.2 10:39:59 28° NNE 10:39:59 28° NNE 10:42:01 10° NNE
Meteor 2-17 Rocket 4.3 10:38:24 88° ENE 10:38:24 88° ENE 10:44:31 10° N
ATLAS 5 CENTAUR R/B 4.1 10:42:32 28° S 10:42:32 28° S 10:46:49 10° SE
Cosmos 1151 Rocket 4.1 10:44:41 41° ENE 10:44:41 41° ENE 10:48:15 10° NNE
SL-16 R/B 4.4 10:45:14 11° SE 10:48:46 19° E 10:52:38 10° NE
CZ-2C R/B 4.1 10:46:52 10° NE 10:51:24 30° E 10:53:57 20° SE
ADEOS II 2.9 10:54:33 10° N 10:58:31 38° NW 10:58:31 38° NW
Meteor 1-19 Rocket 4.2 11:02:23 67° SSW 11:03:14 84° W 11:09:16 10° N
Cosmos 923 Rocket 3.9 11:03:38 76° S 11:04:02 84° ESE 11:09:18 10° NNE
FENGYUN 3A 4.2 11:00:14 10° N 11:04:53 43° NW 11:04:53 43° NW
Cosmos 1092 Rocket 3.8 11:09:38 51° SSW 11:11:20 84° W 11:17:30 10° N
CZ-2D R/B 3.7 11:08:59 10° NNW 11:12:08 21° NW 11:12:08 21° NW
Envisat 3.2 11:08:14 10° NNE 11:13:17 65° ESE 11:15:01 40° SSE
UNK 3.9 11:18:32 55° WNW 11:18:32 55° WNW 11:22:24 10° NNW
Cosmos 1805 Rocket 4.0 11:13:45 10° NNW 11:17:00 47° NW 11:17:00 47° NW
Cosmos 2026 Rocket 3.9 11:16:45 46° SSW 11:18:41 74° W 11:25:03 10° N
NOSS 2-2 (E) 4.4 11:17:18 10° NNW 11:22:16 78° ENE 11:29:25 10° SE
SL-16 R/B 2.7 11:22:00 45° WSW 11:22:16 45° W 11:28:12 10° NNW
Cosmos 1733 4.0 11:21:23 10° N 11:23:46 39° NNW 11:23:46 39° NNW
YAOGAN 6 3.1 11:22:53 10° NNE 11:26:04 46° E 11:26:19 45° ESE
CZ-4 R/B 3.7 11:23:34 10° N 11:28:17 70° WNW 11:29:06 56° SW
BlueWalker 3 4.0 11:25:50 10° NNW 11:29:08 27° NNE 11:32:25 10° E
Meteor 1-27 Rocket 4.1 11:29:05 42° W 11:29:54 45° WNW 11:35:24 10° N
Thor Agena Rocket 3.7 11:26:24 10° NNE 11:31:26 70° ESE 11:34:23 25° S
EO 1 Delta rocket 3.9 11:27:04 10° N 11:31:35 56° WNW 11:32:15 51° WSW
Cosmos 1943 Rocket 2.6 11:27:02 10° NNW 11:32:41 65° ENE 11:38:18 10° SSE
Meteor 2-4 Rocket 3.6 11:30:43 26° S 11:33:50 80° E 11:39:20 10° N
H-2A R/B 4.2 11:31:12 10° NE 11:35:10 23° E 11:39:10 10° SSE
COSMOS 2428 4.3 11:34:36 19° WNW 11:35:18 19° NW 11:39:21 10° N
NOSS 2-2 (D) 4.4 11:32:03 10° NNW 11:36:55 75° ENE 11:43:54 10° SE
Cosmos 1340 Rocket 2.5 11:39:28 64° WSW 11:39:48 69° W 11:43:39 10° N
ALOS 3.4 11:36:53 10° NNW 11:40:36 27° WNW 11:40:36 27° WNW
NOAA 11 4.1 11:35:22 10° NNE 11:40:50 83° WNW 11:44:06 25° SSW
Cosmos 2237 Rocket 2.7 11:40:20 35° W 11:41:48 41° WNW 11:47:09 10° N
Sich 1 4.2 11:38:57 10° NNW 11:41:30 27° WNW 11:41:30 27° WNW
Cosmos 1980 4.4 11:41:44 33° W 11:43:08 37° WNW 11:48:22 10° N
Cosmos 2112 Rocket 4.0 11:41:26 36° SW 11:43:36 69° WNW 11:48:57 10° NNE
Cosmos 1867 3.9 11:40:33 10° NW 11:45:38 40° WSW 11:50:39 10° S
Cosmos 1805 2.9 11:42:54 10° N 11:46:37 80° W 11:48:23 29° S
Cosmos 1328 Rocket 3.4 11:45:30 29° S 11:47:45 83° W 11:52:11 10° N
DMSP B5D2-2 4.4 11:45:06 10° SSE 11:50:14 68° ENE 11:55:24 10° N
